| time (UTC) | temp C | wind direction | speed KPH | gust KPH | rain 1hr cm | rain 24hr cm | rain mn cm | humidity % | barometer mb |
| 20260904034740 | 20 | 59 | 1.6 | 1.6 | 0.00 | 0.00 | 0.00 | 85 | 1011.5 |
| 20260904034236 | 20 | 37 | 4.8 | 4.8 | 0.00 | 0.00 | 0.00 | 85 | 1011.6 |
| 20260904033731 | 20 | 58 | 3.2 | 3.2 | 0.00 | 0.00 | 0.00 | 85 | 1011.6 |
| 20260904033228 | 20 | 53 | 3.2 | 3.2 | 0.00 | 0.00 | 0.00 | 85 | 1011.5 |
| 20260904032723 | 20 | 52 | 3.2 | 3.2 | 0.00 | 0.00 | 0.00 | 85 | 1011.3 |
| 20260904032222 | 20 | 17 | 3.2 | 3.2 | 0.00 | 0.00 | 0.00 | 86 | 1011.2 |
| 20260904031717 | 20 | 26 | 3.2 | 3.2 | 0.00 | 0.00 | 0.00 | 86 | 1011.3 |
| 20260904031213 | 20 | 30 | 3.2 | 3.2 | 0.00 | 0.00 | 0.00 | 84 | 1011.2 |
| 20260904030708 | 21 | 45 | 1.6 | 1.6 | 0.00 | 0.00 | 0.00 | 82 | 1011.3 |
| 20260904030203 | 21 | 45 | 4.8 | 8.0 | 0.00 | 0.00 | 0.00 | 83 | 1011.3 |
| 20260904025700 | 20 | 45 | 3.2 | 3.2 | 0.00 | 0.00 | 0.00 | 84 | 1011.2 |
| 20260904025154 | 21 | 60 | 4.8 | 4.8 | 0.00 | 0.00 | 0.00 | 83 | 1010.9 |
| 20260904024650 | 21 | 60 | 3.2 | 3.2 | 0.00 | 0.00 | 0.00 | 82 | 1010.9 |
| 20260904024145 | 21 | 46 | 4.8 | 4.8 | 0.00 | 0.00 | 0.00 | 83 | 1010.8 |
| 20260904023641 | 21 | 58 | 3.2 | 3.2 | 0.00 | 0.00 | 0.00 | 84 | 1010.9 |
| 20260904023137 | 21 | 56 | 4.8 | 4.8 | 0.00 | 0.00 | 0.00 | 83 | 1010.9 |
| 20260904022637 | 21 | 46 | 4.8 | 4.8 | 0.00 | 0.00 | 0.00 | 83 | 1010.8 |
| 20260904022134 | 21 | 52 | 3.2 | 3.2 | 0.00 | 0.00 | 0.00 | 84 | 1010.9 |
| 20260904021630 | 21 | 47 | 3.2 | 3.2 | 0.00 | 0.00 | 0.00 | 83 | 1010.7 |
| 20260904021125 | 20 | 35 | 3.2 | 3.2 | 0.00 | 0.00 | 0.00 | 85 | 1010.9 |
| 20260904020620 | 21 | 61 | 3.2 | 3.2 | 0.00 | 0.00 | 0.00 | 85 | 1010.8 |
| 20260904020109 | 21 | 79 | 3.2 | 3.2 | 0.00 | 0.00 | 0.00 | 84 | 1010.9 |
| 20260904015603 | 21 | 52 | 3.2 | 3.2 | 0.00 | 0.00 | 0.00 | 84 | 1010.8 |
| 20260904015102 | 21 | 70 | 3.2 | 3.2 | 0.00 | 0.00 | 0.00 | 83 | 1010.7 |
| 20260904014556 | 21 | 74 | 1.6 | 1.6 | 0.00 | 0.00 | 0.00 | 82 | 1010.5 |
| 20260904014052 | 21 | 60 | 1.6 | 1.6 | 0.00 | 0.00 | 0.00 | 82 | 1010.4 |
| 20260904013548 | 21 | 57 | 1.6 | 3.2 | 0.00 | 0.00 | 0.00 | 83 | 1010.5 |
| 20260904013044 | 21 | 60 | 1.6 | 1.6 | 0.00 | 0.00 | 0.00 | 83 | 1010.2 |
| 20260904012544 | 21 | 57 | 1.6 | 1.6 | 0.00 | 0.00 | 0.00 | 82 | 1010.2 |
| 20260904012038 | 22 | 63 | 3.2 | 3.2 | 0.00 | 0.00 | 0.00 | 81 | 1010.3 |
| 20260904011537 | 22 | 71 | 0.0 | 0.0 | 0.00 | 0.00 | 0.00 | 82 | 1010.1 |
| 20260904011033 | 22 | 72 | 0.0 | 0.0 | 0.00 | 0.00 | 0.00 | 81 | 1010.2 |
| 20260904010529 | 22 | 87 | 0.0 | 0.0 | 0.00 | 0.00 | 0.00 | 80 | 1010.0 |
| 20260904010025 | 23 | 87 | 0.0 | 0.0 | 0.00 | 0.00 | 0.00 | 79 | 1010.1 |
| 20260904005525 | 23 | 86 | 1.6 | 1.6 | 0.00 | 0.00 | 0.00 | 77 | 1009.9 |
| 20260904005021 | 24 | 98 | 0.0 | 0.0 | 0.00 | 0.00 | 0.00 | 76 | 1010.0 |
| 20260904004516 | 24 | 78 | 0.0 | 1.6 | 0.00 | 0.00 | 0.00 | 76 | 1009.7 |
| 20260904004016 | 25 | 103 | 1.6 | 1.6 | 0.00 | 0.00 | 0.00 | 74 | 1010.0 |
| 20260904003513 | 25 | 79 | 0.0 | 0.0 | 0.00 | 0.00 | 0.00 | 74 | 1009.8 |
| 20260904003008 | 25 | 152 | 1.6 | 1.6 | 0.00 | 0.00 | 0.00 | 71 | 1009.7 |
| 20260904002504 | 25 | 80 | 1.6 | 1.6 | 0.00 | 0.00 | 0.00 | 72 | 1010.0 |
| 20260904002003 | 25 | 101 | 0.0 | 0.0 | 0.00 | 0.00 | 0.00 | 70 | 1009.8 |
| 20260904001459 | 25 | 79 | 1.6 | 1.6 | 0.00 | 0.00 | 0.00 | 71 | 1009.8 |
| 20260904000959 | 26 | 115 | 0.0 | 0.0 | 0.00 | 0.00 | 0.00 | 70 | 1009.8 |
| 20260904000458 | 26 | 115 | 0.0 | 0.0 | 0.00 | 0.00 | 0.00 | 71 | 1009.8 |
| 20260903235954 | 26 | 121 | 0.0 | 0.0 | 0.00 | 0.00 | 0.00 | 68 | 1010.0 |
| 20260903235449 | 26 | 120 | 0.0 | 1.6 | 0.00 | 0.00 | 0.00 | 69 | 1009.9 |
| 20260903234943 | 26 | 181 | 1.6 | 1.6 | 0.00 | 0.00 | 0.00 | 69 | 1009.8 |
| 20260903234440 | 25 | 187 | 3.2 | 3.2 | 0.00 | 0.00 | 0.00 | 70 | 1009.9 |
| 20260903233936 | 25 | 141 | 4.8 | 4.8 | 0.00 | 0.00 | 0.00 | 71 | 1009.9 |
| 20260903233431 | 25 | 104 | 3.2 | 3.2 | 0.00 | 0.00 | 0.00 | 71 | 1009.8 |
| 20260903232926 | 25 | 115 | 0.0 | 1.6 | 0.00 | 0.00 | 0.00 | 70 | 1009.6 |
| 20260903232420 | 26 | 132 | 3.2 | 3.2 | 0.00 | 0.00 | 0.00 | 70 | 1009.6 |
| 20260903231915 | 25 | 169 | 4.8 | 8.0 | 0.00 | 0.00 | 0.00 | 70 | 1009.5 |
| 20260903231410 | 25 | 107 | 4.8 | 4.8 | 0.00 | 0.00 | 0.00 | 71 | 1009.5 |
| 20260903230905 | 25 | 150 | 6.4 | 8.0 | 0.00 | 0.00 | 0.00 | 71 | 1009.6 |
| 20260903230400 | 25 | 155 | 4.8 | 4.8 | 0.00 | 0.00 | 0.00 | 72 | 1009.0 |
| 20260903225856 | 25 | 147 | 9.7 | 11.3 | 0.00 | 0.00 | 0.00 | 73 | 1009.0 |
| 20260903225352 | 25 | 102 | 11.3 | 12.9 | 0.00 | 0.00 | 0.00 | 72 | 1009.0 |
| 20260903224847 | 25 | 93 | 4.8 | 4.8 | 0.00 | 0.00 | 0.00 | 72 | 1009.2 |
| 20260903224338 | 25 | 122 | 6.4 | 8.0 | 0.00 | 0.00 | 0.00 | 72 | 1008.9 |
| 20260903223833 | 25 | 61 | 6.4 | 8.0 | 0.00 | 0.00 | 0.00 | 72 | 1009.2 |
| 20260903223332 | 25 | 74 | 4.8 | 4.8 | 0.00 | 0.00 | 0.00 | 72 | 1009.0 |
| 20260903222827 | 25 | 52 | 6.4 | 8.0 | 0.00 | 0.00 | 0.00 | 73 | 1008.9 |
| 20260903222327 | 25 | 68 | 4.8 | 8.0 | 0.00 | 0.00 | 0.00 | 72 | 1008.9 |
| 20260903221821 | 25 | 101 | 6.4 | 8.0 | 0.00 | 0.00 | 0.00 | 73 | 1008.9 |
| 20260903221320 | 25 | 108 | 3.2 | 3.2 | 0.00 | 0.00 | 0.00 | 73 | 1008.9 |
| 20260903220818 | 25 | 107 | 1.6 | 1.6 | 0.00 | 0.00 | 0.00 | 74 | 1008.8 |
| 20260903220312 | 24 | 106 | 4.8 | 4.8 | 0.00 | 0.00 | 0.00 | 74 | 1008.8 |
| 20260903215811 | 25 | 111 | 6.4 | 9.7 | 0.00 | 0.00 | 0.00 | 75 | 1008.8 |
| 20260903215308 | 25 | 39 | 8.0 | 9.7 | 0.00 | 0.00 | 0.00 | 75 | 1008.7 |
| 20260903214805 | 25 | 91 | 3.2 | 3.2 | 0.00 | 0.00 | 0.00 | 76 | 1008.6 |
| 20260903214301 | 25 | 106 | 4.8 | 8.0 | 0.00 | 0.00 | 0.00 | 76 | 1008.7 |
| 20260903213755 | 25 | 78 | 8.0 | 11.3 | 0.00 | 0.00 | 0.00 | 76 | 1008.8 |
| 20260903213251 | 24 | 98 | 6.4 | 8.0 | 0.00 | 0.00 | 0.00 | 76 | 1008.7 |
| 20260903212741 | 25 | 84 | 6.4 | 11.3 | 0.00 | 0.00 | 0.00 | 76 | 1008.8 |
| 20260903212238 | 24 | 104 | 4.8 | 8.0 | 0.00 | 0.00 | 0.00 | 77 | 1008.7 |
| 20260903211736 | 24 | 88 | 6.4 | 8.0 | 0.00 | 0.00 | 0.00 | 77 | 1008.6 |
| 20260903211234 | 23 | 60 | 4.8 | 4.8 | 0.00 | 0.00 | 0.00 | 78 | 1008.6 |
| 20260903210729 | 24 | 31 | 4.8 | 8.0 | 0.00 | 0.00 | 0.00 | 77 | 1008.7 |
| 20260903210225 | 23 | 50 | 6.4 | 9.7 | 0.00 | 0.00 | 0.00 | 79 | 1008.5 |
| 20260903205718 | 23 | 28 | 9.7 | 11.3 | 0.00 | 0.00 | 0.00 | 79 | 1008.6 |
| 20260903205217 | 23 | 62 | 6.4 | 9.7 | 0.00 | 0.00 | 0.00 | 80 | 1008.7 |
| 20260903204713 | 23 | 20 | 6.4 | 8.0 | 0.00 | 0.00 | 0.00 | 79 | 1008.8 |
| 20260903204210 | 23 | 77 | 6.4 | 11.3 | 0.00 | 0.00 | 0.00 | 79 | 1008.7 |
| 20260903203704 | 22 | 80 | 4.8 | 8.0 | 0.00 | 0.00 | 0.00 | 81 | 1008.7 |
| 20260903203200 | 22 | 48 | 9.7 | 9.7 | 0.00 | 0.00 | 0.00 | 82 | 1008.7 |
| 20260903202654 | 22 | 38 | 8.0 | 11.3 | 0.00 | 0.00 | 0.00 | 82 | 1009.0 |
| 20260903202150 | 22 | 58 | 4.8 | 8.0 | 0.00 | 0.00 | 0.00 | 82 | 1009.3 |
| 20260903201643 | 22 | 28 | 4.8 | 4.8 | 0.00 | 0.00 | 0.00 | 82 | 1008.8 |
| 20260903201138 | 22 | 44 | 8.0 | 11.3 | 0.00 | 0.00 | 0.00 | 83 | 1008.7 |
| 20260903200633 | 22 | 27 | 6.4 | 9.7 | 0.00 | 0.00 | 0.00 | 84 | 1008.7 |
| 20260903200129 | 21 | 48 | 6.4 | 9.7 | 0.00 | 0.00 | 0.00 | 83 | 1008.6 |
| 20260903195624 | 21 | 28 | 8.0 | 9.7 | 0.00 | 0.00 | 0.00 | 84 | 1008.8 |
| 20260903195120 | 21 | 46 | 4.8 | 8.0 | 0.00 | 0.00 | 0.00 | 84 | 1008.5 |
| 20260903194614 | 21 | 74 | 3.2 | 4.8 | 0.00 | 0.00 | 0.00 | 84 | 1008.3 |
| 20260903194114 | 21 | 31 | 8.0 | 9.7 | 0.00 | 0.00 | 0.00 | 84 | 1008.1 |
| 20260903193611 | 21 | 48 | 8.0 | 12.9 | 0.00 | 0.00 | 0.00 | 84 | 1008.3 |
| 20260903193106 | 21 | 40 | 4.8 | 9.7 | 0.00 | 0.00 | 0.00 | 85 | 1008.7 |
| 20260903192603 | 21 | 32 | 8.0 | 12.9 | 0.00 | 0.00 | 0.00 | 85 | 1008.4 |
| 20260903192103 | 21 | 30 | 8.0 | 9.7 | 0.00 | 0.00 | 0.00 | 84 | 1008.7 |
| 20260903191559 | 21 | 35 | 3.2 | 4.8 | 0.00 | 0.00 | 0.00 | 86 | 1008.6 |
| 20260903191054 | 21 | 31 | 6.4 | 8.0 | 0.00 | 0.00 | 0.00 | 86 | 1008.9 |
| 20260903190553 | 21 | 27 | 4.8 | 4.8 | 0.00 | 0.00 | 0.00 | 86 | 1008.9 |
| 20260903190053 | 21 | 326 | 6.4 | 8.0 | 0.00 | 0.00 | 0.00 | 85 | 1009.3 |
| 20260903185548 | 21 | 299 | 4.8 | 4.8 | 0.00 | 0.00 | 0.00 | 85 | 1009.0 |
| 20260903185044 | 21 | 31 | 1.6 | 3.2 | 0.00 | 0.00 | 0.00 | 86 | 1008.8 |
| 20260903184540 | 21 | 43 | 4.8 | 8.0 | 0.00 | 0.00 | 0.00 | 86 | 1008.7 |
| 20260903184035 | 21 | 26 | 3.2 | 3.2 | 0.00 | 0.00 | 0.00 | 86 | 1008.7 |
| 20260903183534 | 21 | 35 | 1.6 | 1.6 | 0.00 | 0.00 | 0.00 | 85 | 1008.7 |
| 20260903183029 | 21 | 45 | 3.2 | 3.2 | 0.00 | 0.00 | 0.00 | 86 | 1008.9 |
| 20260903182527 | 21 | 124 | 4.8 | 4.8 | 0.00 | 0.00 | 0.00 | 86 | 1008.8 |
| 20260903182024 | 21 | 42 | 4.8 | 4.8 | 0.00 | 0.00 | 0.00 | 86 | 1008.4 |
| 20260903181517 | 21 | 55 | 8.0 | 9.7 | 0.00 | 0.00 | 0.00 | 86 | 1008.2 |
| 20260903181017 | 21 | 49 | 8.0 | 9.7 | 0.00 | 0.00 | 0.00 | 87 | 1008.2 |
| 20260903180513 | 20 | 60 | 4.8 | 4.8 | 0.00 | 0.00 | 0.00 | 88 | 1008.3 |
| 20260903180007 | 20 | 52 | 4.8 | 8.0 | 0.00 | 0.00 | 0.00 | 89 | 1008.1 |
| 20260903175506 | 20 | 48 | 8.0 | 9.7 | 0.00 | 0.00 | 0.00 | 89 | 1008.2 |
| 20260903175005 | 20 | 74 | 9.7 | 11.3 | 0.00 | 0.00 | 0.00 | 90 | 1008.2 |
| 20260903174500 | 19 | 44 | 6.4 | 8.0 | 0.00 | 0.00 | 0.00 | 91 | 1008.3 |
| 20260903174000 | 18 | 32 | 8.0 | 9.7 | 0.00 | 0.00 | 0.00 | 92 | 1008.0 |
| 20260903173455 | 18 | 39 | 9.7 | 12.9 | 0.00 | 0.00 | 0.00 | 92 | 1008.1 |
| 20260903172950 | 18 | 47 | 12.9 | 16.1 | 0.00 | 0.00 | 0.00 | 93 | 1007.8 |
| 20260903172445 | 18 | 37 | 11.3 | 17.7 | 0.00 | 0.00 | 0.00 | 93 | 1007.8 |
| 20260903171941 | 18 | 47 | 12.9 | 16.1 | 0.00 | 0.00 | 0.00 | 93 | 1007.5 |
| 20260903171431 | 18 | 13 | 8.0 | 11.3 | 0.00 | 0.00 | 0.00 | 92 | 1007.8 |
| 20260903170931 | 18 | 24 | 9.7 | 12.9 | 0.00 | 0.00 | 0.00 | 91 | 1007.8 |
| 20260903170425 | 19 | 12 | 9.7 | 11.3 | 0.00 | 0.00 | 0.00 | 90 | 1007.8 |
| 20260903165924 | 20 | 22 | 6.4 | 9.7 | 0.00 | 0.00 | 0.00 | 90 | 1007.4 |
| 20260903165418 | 20 | 43 | 3.2 | 3.2 | 0.00 | 0.00 | 0.00 | 90 | 1007.5 |
| 20260903164913 | 20 | 356 | 3.2 | 3.2 | 0.00 | 0.00 | 0.00 | 90 | 1007.5 |
| 20260903164408 | 20 | 65 | 3.2 | 3.2 | 0.00 | 0.00 | 0.00 | 90 | 1007.6 |
| 20260903163908 | 20 | 33 | 3.2 | 3.2 | 0.00 | 0.00 | 0.00 | 89 | 1007.5 |
| 20260903163404 | 20 | 22 | 4.8 | 4.8 | 0.00 | 0.00 | 0.00 | 89 | 1007.5 |
| 20260903162900 | 20 | 32 | 3.2 | 3.2 | 0.00 | 0.00 | 0.00 | 89 | 1007.6 |
| 20260903162356 | 20 | 60 | 3.2 | 3.2 | 0.00 | 0.00 | 0.00 | 89 | 1007.4 |
| 20260903161852 | 20 | 43 | 4.8 | 4.8 | 0.00 | 0.00 | 0.00 | 89 | 1007.1 |
| 20260903161347 | 20 | 63 | 4.8 | 4.8 | 0.00 | 0.00 | 0.00 | 89 | 1006.8 |
| 20260903160843 | 20 | 60 | 8.0 | 9.7 | 0.00 | 0.00 | 0.00 | 89 | 1006.8 |
| 20260903160341 | 20 | 55 | 4.8 | 4.8 | 0.00 | 0.00 | 0.00 | 89 | 1006.8 |
| 20260903155840 | 20 | 51 | 4.8 | 8.0 | 0.00 | 0.00 | 0.00 | 89 | 1006.8 |
| 20260903155335 | 20 | 33 | 8.0 | 9.7 | 0.00 | 0.00 | 0.00 | 89 | 1006.6 |
| 20260903154831 | 20 | 25 | 11.3 | 12.9 | 0.00 | 0.00 | 0.00 | 89 | 1006.8 |
| 20260903154327 | 20 | 75 | 4.8 | 4.8 | 0.00 | 0.00 | 0.00 | 89 | 1006.6 |
| 20260903153822 | 20 | 59 | 6.4 | 8.0 | 0.00 | 0.00 | 0.00 | 89 | 1006.4 |
| 20260903153318 | 20 | 97 | 4.8 | 8.0 | 0.00 | 0.00 | 0.00 | 89 | 1006.3 |
| 20260903152815 | 20 | 69 | 8.0 | 9.7 | 0.00 | 0.00 | 0.00 | 89 | 1006.2 |
| 20260903152310 | 19 | 88 | 6.4 | 8.0 | 0.00 | 0.00 | 0.00 | 90 | 1006.2 |
| 20260903151810 | 19 | 62 | 6.4 | 9.7 | 0.00 | 0.00 | 0.00 | 90 | 1006.2 |
| 20260903151305 | 19 | 105 | 8.0 | 8.0 | 0.00 | 0.00 | 0.00 | 90 | 1006.3 |
| 20260903150759 | 19 | 52 | 4.8 | 8.0 | 0.00 | 0.00 | 0.00 | 90 | 1006.4 |
| 20260903150253 | 19 | 74 | 9.7 | 14.5 | 0.00 | 0.00 | 0.00 | 90 | 1006.5 |
| 20260903145750 | 19 | 79 | 8.0 | 11.3 | 0.00 | 0.00 | 0.00 | 90 | 1006.7 |
| 20260903145245 | 18 | 68 | 6.4 | 11.3 | 0.00 | 0.00 | 0.00 | 90 | 1006.7 |
| 20260903144743 | 18 | 71 | 4.8 | 4.8 | 0.00 | 0.00 | 0.00 | 91 | 1006.8 |
| 20260903144239 | 18 | 50 | 12.9 | 14.5 | 0.00 | 0.00 | 0.00 | 90 | 1006.9 |
| 20260903143735 | 18 | 64 | 8.0 | 11.3 | 0.00 | 0.00 | 0.00 | 90 | 1007.0 |
| 20260903143231 | 18 | 53 | 4.8 | 9.7 | 0.00 | 0.00 | 0.00 | 90 | 1007.1 |
| 20260903142727 | 18 | 45 | 9.7 | 11.3 | 0.00 | 0.00 | 0.00 | 90 | 1007.1 |
| 20260903142223 | 18 | 28 | 8.0 | 11.3 | 0.00 | 0.00 | 0.00 | 90 | 1007.2 |
| 20260903141717 | 18 | 56 | 8.0 | 9.7 | 0.00 | 0.00 | 0.00 | 89 | 1007.5 |
| 20260903141213 | 18 | 32 | 4.8 | 4.8 | 0.00 | 0.00 | 0.00 | 89 | 1007.6 |
| 20260903140708 | 18 | 42 | 6.4 | 8.0 | 0.00 | 0.00 | 0.00 | 89 | 1007.8 |
| 20260903140203 | 18 | 62 | 4.8 | 4.8 | 0.00 | 0.00 | 0.00 | 89 | 1007.8 |
| 20260903135659 | 18 | 53 | 3.2 | 3.2 | 0.00 | 0.00 | 0.00 | 89 | 1007.8 |
| 20260903135154 | 18 | 47 | 4.8 | 4.8 | 0.00 | 0.00 | 0.00 | 89 | 1008.0 |
| 20260903134653 | 17 | 13 | 3.2 | 3.2 | 0.00 | 0.00 | 0.00 | 89 | 1008.0 |
| 20260903134149 | 17 | 45 | 3.2 | 3.2 | 0.00 | 0.00 | 0.00 | 89 | 1007.7 |
| 20260903133646 | 17 | 58 | 0.0 | 1.6 | 0.00 | 0.00 | 0.00 | 89 | 1007.6 |
| 20260903133142 | 17 | 86 | 3.2 | 3.2 | 0.00 | 0.00 | 0.00 | 89 | 1007.4 |
| 20260903132636 | 17 | 56 | 3.2 | 3.2 | 0.00 | 0.00 | 0.00 | 89 | 1007.1 |
| 20260903132131 | 17 | 96 | 1.6 | 1.6 | 0.00 | 0.00 | 0.00 | 89 | 1007.5 |
| 20260903131626 | 17 | 155 | 6.4 | 8.0 | 0.00 | 0.00 | 0.00 | 89 | 1007.0 |
| 20260903131125 | 17 | 102 | 9.7 | 12.9 | 0.00 | 0.00 | 0.00 | 89 | 1006.7 |
| 20260903130620 | 17 | 79 | 12.9 | 16.1 | 0.00 | 0.00 | 0.00 | 89 | 1006.6 |
| 20260903130114 | 17 | 74 | 16.1 | 17.7 | 0.00 | 0.00 | 0.00 | 89 | 1006.2 |
| 20260903125613 | 17 | 73 | 17.7 | 20.9 | 0.00 | 0.00 | 0.00 | 89 | 1006.2 |
| 20260903125103 | 17 | 56 | 14.5 | 17.7 | 0.00 | 0.00 | 0.00 | 89 | 1006.1 |
| 20260903124602 | 17 | 84 | 17.7 | 20.9 | 0.00 | 0.00 | 0.00 | 89 | 1006.1 |
| 20260903124057 | 17 | 70 | 14.5 | 17.7 | 0.00 | 0.00 | 0.00 | 89 | 1006.4 |
| 20260903123556 | 17 | 110 | 11.3 | 12.9 | 0.00 | 0.00 | 0.00 | 88 | 1006.2 |
| 20260903123054 | 17 | 96 | 12.9 | 16.1 | 0.00 | 0.00 | 0.00 | 89 | 1006.3 |
| 20260903122549 | 17 | 78 | 14.5 | 17.7 | 0.00 | 0.00 | 0.00 | 88 | 1006.1 |
| 20260903122048 | 17 | 95 | 11.3 | 12.9 | 0.00 | 0.00 | 0.00 | 88 | 1006.4 |
| 20260903121543 | 16 | 126 | 12.9 | 14.5 | 0.00 | 0.00 | 0.00 | 88 | 1006.4 |
| 20260903121039 | 16 | 100 | 11.3 | 16.1 | 0.00 | 0.00 | 0.00 | 88 | 1006.3 |
| 20260903120538 | 16 | 83 | 11.3 | 16.1 | 0.00 | 0.00 | 0.00 | 87 | 1006.3 |
| 20260903120033 | 16 | 114 | 8.0 | 9.7 | 0.00 | 0.00 | 0.00 | 87 | 1006.4 |
| 20260903115531 | 16 | 96 | 9.7 | 12.9 | 0.00 | 0.00 | 0.00 | 87 | 1006.4 |
| 20260903115026 | 16 | 102 | 9.7 | 12.9 | 0.00 | 0.00 | 0.00 | 86 | 1006.3 |
| 20260903114521 | 16 | 78 | 12.9 | 16.1 | 0.00 | 0.00 | 0.00 | 86 | 1006.5 |
| 20260903114017 | 16 | 75 | 9.7 | 12.9 | 0.00 | 0.00 | 0.00 | 86 | 1006.7 |
| 20260903113513 | 16 | 85 | 8.0 | 9.7 | 0.00 | 0.00 | 0.00 | 85 | 1006.8 |
| 20260903113009 | 16 | 87 | 6.4 | 9.7 | 0.00 | 0.00 | 0.00 | 85 | 1007.0 |
| 20260903112503 | 16 | 57 | 6.4 | 8.0 | 0.00 | 0.00 | 0.00 | 85 | 1007.0 |
| 20260903112003 | 16 | 83 | 6.4 | 9.7 | 0.00 | 0.00 | 0.00 | 84 | 1006.8 |
| 20260903111457 | 16 | 86 | 4.8 | 4.8 | 0.00 | 0.00 | 0.00 | 84 | 1006.8 |
| 20260903110954 | 16 | 93 | 4.8 | 4.8 | 0.00 | 0.00 | 0.00 | 84 | 1006.8 |
| 20260903110449 | 16 | 105 | 8.0 | 9.7 | 0.00 | 0.00 | 0.00 | 84 | 1006.5 |
| 20260903105943 | 16 | 66 | 11.3 | 14.5 | 0.00 | 0.00 | 0.00 | 83 | 1006.2 |
| 20260903105439 | 16 | 92 | 8.0 | 9.7 | 0.00 | 0.00 | 0.00 | 83 | 1006.4 |
| 20260903104938 | 16 | 134 | 9.7 | 12.9 | 0.00 | 0.00 | 0.00 | 82 | 1006.5 |
| 20260903104438 | 17 | 108 | 8.0 | 11.3 | 0.00 | 0.00 | 0.00 | 82 | 1006.6 |
| 20260903103935 | 17 | 83 | 14.5 | 16.1 | 0.00 | 0.00 | 0.00 | 82 | 1006.4 |
| 20260903103430 | 16 | 79 | 8.0 | 11.3 | 0.00 | 0.00 | 0.00 | 82 | 1006.7 |
| 20260903102926 | 17 | 98 | 11.3 | 12.9 | 0.00 | 0.00 | 0.00 | 81 | 1006.7 |
| 20260903102421 | 17 | 114 | 11.3 | 12.9 | 0.00 | 0.00 | 0.00 | 80 | 1006.8 |
| 20260903101920 | 17 | 80 | 6.4 | 11.3 | 0.00 | 0.00 | 0.00 | 80 | 1006.7 |
| 20260903101415 | 17 | 73 | 14.5 | 16.1 | 0.00 | 0.00 | 0.00 | 80 | 1006.7 |
| 20260903100910 | 17 | 91 | 9.7 | 12.9 | 0.00 | 0.00 | 0.00 | 80 | 1006.5 |
| 20260903100406 | 17 | 73 | 14.5 | 20.9 | 0.00 | 0.00 | 0.00 | 79 | 1006.7 |
| 20260903095902 | 17 | 90 | 12.9 | 17.7 | 0.00 | 0.00 | 0.00 | 78 | 1006.6 |
| 20260903095356 | 17 | 99 | 9.7 | 11.3 | 0.00 | 0.00 | 0.00 | 78 | 1006.7 |
| 20260903094851 | 17 | 96 | 12.9 | 14.5 | 0.00 | 0.00 | 0.00 | 77 | 1006.9 |
| 20260903094346 | 17 | 82 | 16.1 | 20.9 | 0.00 | 0.00 | 0.00 | 77 | 1006.9 |
| 20260903093842 | 17 | 134 | 8.0 | 8.0 | 0.00 | 0.00 | 0.00 | 77 | 1007.0 |
| 20260903093337 | 17 | 77 | 9.7 | 9.7 | 0.00 | 0.00 | 0.00 | 77 | 1006.9 |
| 20260903092832 | 17 | 120 | 17.7 | 24.1 | 0.00 | 0.00 | 0.00 | 77 | 1007.0 |
| 20260903092327 | 17 | 102 | 16.1 | 17.7 | 0.00 | 0.00 | 0.00 | 76 | 1006.8 |
| 20260903091825 | 17 | 77 | 17.7 | 22.5 | 0.00 | 0.00 | 0.00 | 76 | 1006.9 |
| 20260903091319 | 17 | 60 | 16.1 | 22.5 | 0.00 | 0.00 | 0.00 | 76 | 1006.9 |
| 20260903090815 | 17 | 57 | 11.3 | 16.1 | 0.00 | 0.00 | 0.00 | 76 | 1006.7 |
| 20260903090315 | 17 | 128 | 17.7 | 24.1 | 0.00 | 0.00 | 0.00 | 76 | 1007.0 |
| 20260903085813 | 17 | 111 | 17.7 | 24.1 | 0.00 | 0.00 | 0.00 | 75 | 1007.0 |
| 20260903085308 | 17 | 70 | 17.7 | 22.5 | 0.00 | 0.00 | 0.00 | 75 | 1007.2 |
| 20260903084806 | 17 | 88 | 12.9 | 16.1 | 0.00 | 0.00 | 0.00 | 75 | 1007.5 |
| 20260903084300 | 17 | 105 | 14.5 | 17.7 | 0.00 | 0.00 | 0.00 | 75 | 1007.4 |
| 20260903083755 | 17 | 83 | 17.7 | 22.5 | 0.00 | 0.00 | 0.00 | 75 | 1007.2 |
| 20260903083250 | 17 | 93 | 12.9 | 14.5 | 0.00 | 0.00 | 0.00 | 74 | 1007.6 |
| 20260903082749 | 18 | 95 | 9.7 | 14.5 | 0.00 | 0.00 | 0.00 | 74 | 1007.7 |
| 20260903082245 | 18 | 73 | 11.3 | 14.5 | 0.00 | 0.00 | 0.00 | 73 | 1007.7 |
| 20260903081745 | 18 | 90 | 14.5 | 17.7 | 0.00 | 0.00 | 0.00 | 72 | 1007.7 |
| 20260903081241 | 18 | 103 | 12.9 | 14.5 | 0.00 | 0.00 | 0.00 | 72 | 1007.8 |
| 20260903080737 | 18 | 79 | 19.3 | 24.1 | 0.00 | 0.00 | 0.00 | 72 | 1007.8 |
| 20260903080235 | 18 | 73 | 11.3 | 14.5 | 0.00 | 0.00 | 0.00 | 71 | 1007.7 |
| 20260903075734 | 18 | 78 | 22.5 | 27.4 | 0.00 | 0.00 | 0.00 | 70 | 1007.7 |
| 20260903075229 | 18 | 89 | 16.1 | 22.5 | 0.00 | 0.00 | 0.00 | 70 | 1008.3 |
| 20260903074728 | 18 | 93 | 11.3 | 14.5 | 0.00 | 0.00 | 0.00 | 70 | 1008.3 |
| 20260903074223 | 18 | 81 | 19.3 | 24.1 | 0.00 | 0.00 | 0.00 | 70 | 1008.7 |
| 20260903073718 | 19 | 50 | 11.3 | 14.5 | 0.00 | 0.00 | 0.00 | 70 | 1008.5 |
| 20260903073214 | 19 | 66 | 14.5 | 20.9 | 0.00 | 0.00 | 0.00 | 69 | 1008.7 |
| 20260903072709 | 19 | 82 | 12.9 | 14.5 | 0.00 | 0.00 | 0.00 | 68 | 1008.4 |
| 20260903072206 | 20 | 78 | 12.9 | 17.7 | 0.00 | 0.00 | 0.00 | 68 | 1008.7 |
| 20260903071702 | 20 | 74 | 12.9 | 20.9 | 0.00 | 0.00 | 0.00 | 68 | 1008.9 |
| 20260903071157 | 20 | 80 | 8.0 | 9.7 | 0.00 | 0.00 | 0.00 | 67 | 1009.0 |
| 20260903070657 | 20 | 82 | 12.9 | 16.1 | 0.00 | 0.00 | 0.00 | 67 | 1009.0 |
| 20260903070153 | 20 | 75 | 12.9 | 16.1 | 0.00 | 0.00 | 0.00 | 67 | 1009.2 |
| 20260903065647 | 20 | 105 | 14.5 | 16.1 | 0.00 | 0.00 | 0.00 | 66 | 1009.3 |
| 20260903065147 | 20 | 93 | 19.3 | 25.7 | 0.00 | 0.00 | 0.00 | 67 | 1009.4 |
| 20260903064646 | 20 | 85 | 11.3 | 16.1 | 0.00 | 0.00 | 0.00 | 67 | 1009.3 |
| 20260903064142 | 20 | 87 | 16.1 | 17.7 | 0.00 | 0.00 | 0.00 | 68 | 1009.5 |
| 20260903063638 | 20 | 74 | 11.3 | 14.5 | 0.00 | 0.00 | 0.00 | 68 | 1009.6 |
| 20260903063138 | 19 | 73 | 11.3 | 12.9 | 0.00 | 0.00 | 0.00 | 69 | 1009.5 |
| 20260903062634 | 19 | 117 | 11.3 | 14.5 | 0.00 | 0.00 | 0.00 | 70 | 1009.7 |
| 20260903062129 | 19 | 70 | 12.9 | 16.1 | 0.00 | 0.00 | 0.00 | 70 | 1009.7 |
| 20260903061624 | 19 | 91 | 11.3 | 12.9 | 0.00 | 0.00 | 0.00 | 70 | 1009.8 |
| 20260903061123 | 20 | 131 | 11.3 | 12.9 | 0.00 | 0.00 | 0.00 | 69 | 1009.6 |
| 20260903060618 | 20 | 84 | 11.3 | 12.9 | 0.00 | 0.00 | 0.00 | 69 | 1009.6 |
| 20260903060114 | 20 | 81 | 12.9 | 16.1 | 0.00 | 0.00 | 0.00 | 69 | 1009.8 |
| 20260903055611 | 20 | 81 | 11.3 | 12.9 | 0.00 | 0.00 | 0.00 | 69 | 1010.1 |
| 20260903055109 | 20 | 93 | 11.3 | 14.5 | 0.00 | 0.00 | 0.00 | 69 | 1010.1 |
| 20260903054604 | 20 | 87 | 11.3 | 12.9 | 0.00 | 0.00 | 0.00 | 68 | 1010.0 |
| 20260903054101 | 20 | 104 | 11.3 | 14.5 | 0.00 | 0.00 | 0.00 | 68 | 1009.8 |
| 20260903053556 | 20 | 104 | 14.5 | 17.7 | 0.00 | 0.00 | 0.00 | 68 | 1009.9 |
| 20260903053052 | 20 | 113 | 12.9 | 14.5 | 0.00 | 0.00 | 0.00 | 68 | 1009.9 |
| 20260903052548 | 20 | 59 | 12.9 | 14.5 | 0.00 | 0.00 | 0.00 | 68 | 1010.0 |
| 20260903052043 | 20 | 113 | 9.7 | 11.3 | 0.00 | 0.00 | 0.00 | 69 | 1010.2 |
| 20260903051542 | 20 | 104 | 12.9 | 16.1 | 0.00 | 0.00 | 0.00 | 69 | 1010.2 |
| 20260903051038 | 20 | 63 | 11.3 | 16.1 | 0.00 | 0.00 | 0.00 | 70 | 1010.2 |
| 20260903050537 | 20 | 83 | 14.5 | 14.5 | 0.00 | 0.00 | 0.00 | 71 | 1010.2 |
| 20260903050033 | 20 | 80 | 9.7 | 11.3 | 0.00 | 0.00 | 0.00 | 71 | 1010.4 |
| 20260903045532 | 20 | 94 | 14.5 | 17.7 | 0.00 | 0.00 | 0.00 | 72 | 1010.3 |
| 20260903045029 | 19 | 64 | 11.3 | 14.5 | 0.00 | 0.00 | 0.00 | 72 | 1010.3 |
| 20260903044525 | 20 | 57 | 12.9 | 16.1 | 0.00 | 0.00 | 0.00 | 72 | 1010.2 |
| 20260903044020 | 20 | 76 | 12.9 | 14.5 | 0.00 | 0.00 | 0.00 | 71 | 1010.3 |
| 20260903043516 | 20 | 103 | 17.7 | 20.9 | 0.00 | 0.00 | 0.00 | 70 | 1010.0 |
| 20260903043015 | 20 | 57 | 12.9 | 16.1 | 0.00 | 0.00 | 0.00 | 70 | 1010.2 |
| 20260903042510 | 20 | 84 | 11.3 | 14.5 | 0.00 | 0.00 | 0.00 | 70 | 1010.3 |
| 20260903042006 | 20 | 59 | 12.9 | 17.7 | 0.00 | 0.00 | 0.00 | 71 | 1010.5 |
| 20260903041502 | 19 | 58 | 12.9 | 16.1 | 0.00 | 0.00 | 0.00 | 71 | 1010.3 |
| 20260903040957 | 19 | 75 | 11.3 | 16.1 | 0.00 | 0.00 | 0.00 | 71 | 1010.4 |
| 20260903040456 | 19 | 58 | 8.0 | 9.7 | 0.00 | 0.00 | 0.00 | 71 | 1010.5 |
| 20260903035953 | 19 | 71 | 12.9 | 14.5 | 0.00 | 0.00 | 0.00 | 71 | 1010.5 |
| 20260903035448 | 19 | 67 | 16.1 | 20.9 | 0.00 | 0.00 | 0.00 | 71 | 1010.4 |